EW5975 Weather Reports


Display with metric or nautical units.
time (UTC)temp
F
wind
direction
speed
MPH
gust
MPH
rain 1hr
in
rain 24hr
in
rain mn
in
humidity
%
barometer
mb
20260506231016 53 0.0 0.0 0.00 0.28 0.00 77 1009.9
20260506230016 53 0.0 0.0 0.00 0.31 0.00 77 1009.9
20260506225016 53 0.0 0.0 0.00 0.37 0.00 76 1009.8
20260506224016 54 0.0 0.0 0.00 0.44 0.00 76 1009.8
20260506223036 54 0.0 1.0 0.00 0.50 0.00 76 1009.7
20260506222016 54 0.0 0.0 0.00 0.54 0.00 75 1009.6
20260506221016 54 0.0 1.0 0.00 0.59 0.00 75 1009.6
20260506220016 54 0.0 0.0 0.00 0.65 0.65 75 1009.5
20260506215016 54 0.0 0.0 0.00 0.68 0.65 74 1009.5
20260506214015 55 0.0 0.0 0.00 0.69 0.65 74 1009.4
20260506213057 55 0.0 0.0 0.00 0.69 0.65 72 1009.4
20260506212015 55 0.0 0.0 0.00 0.69 0.65 73 1009.4
20260506211136 55 0.0 2.0 0.00 0.69 0.65 73 1009.3
20260506210017 55 0.0 1.0 0.00 0.69 0.65 72 1009.3
20260506205016 56 0.0 0.0 0.00 0.69 0.65 72 1009.4
20260506204036 56 0.0 1.0 0.00 0.69 0.65 71 1009.2
20260506203015 57 0.0 0.0 0.00 0.69 0.65 70 1009.1
20260506202015 58 0.0 1.0 0.00 0.69 0.65 69 1008.9
20260506201035 58 0.0 0.0 0.00 0.69 0.65 67 1009.0
20260506200036 59 0.0 1.0 0.00 0.69 0.65 65 1008.8
20260506195017 60 0.0 0.0 0.00 0.69 0.65 64 1008.7
20260506194016 61 0.0 0.0 0.00 0.69 0.65 62 1008.5
20260506193017 62 0.0 1.0 0.00 0.69 0.65 61 1008.4
20260506192019 62 0.0 0.0 0.00 0.69 0.65 58 1008.1
20260506191017 63 0.0 2.0 0.00 0.69 0.65 56 1007.9
20260506190019 63 315 1.0 6.0 0.00 0.69 0.65 56 1007.7
20260506185017 63 270 1.0 5.0 0.00 0.69 0.65 56 1007.5
20260506184037 63 293 1.0 8.0 0.00 0.69 0.65 56 1007.4
20260506183017 63 270 1.0 8.0 0.00 0.69 0.65 56 1007.4
20260506182018 63 315 1.0 2.0 0.00 0.69 0.65 56 1007.4
20260506181017 63 248 1.0 6.0 0.00 0.69 0.65 56 1007.4
20260506180019 64 248 1.0 2.0 0.00 0.69 0.65 55 1007.3
20260506175037 64 248 1.0 3.0 0.00 0.69 0.65 53 1007.3
20260506174017 65 270 1.0 2.0 0.00 0.69 0.65 52 1007.3
20260506173017 66 0.0 3.0 0.00 0.69 0.65 50 1007.2
20260506172017 67 225 1.0 4.0 0.00 0.69 0.65 47 1007.1
20260506171017 68 225 1.0 4.0 0.00 0.69 0.65 46 1007.1
20260506170039 69 248 1.0 4.0 0.00 0.69 0.65 45 1007.1
20260506165018 70 248 1.0 7.0 0.00 0.69 0.65 43 1007.1
20260506164017 70 203 2.0 7.0 0.00 0.69 0.65 42 1007.1
20260506163017 70 248 1.0 5.0 0.00 0.69 0.65 44 1007.0
20260506162017 70 225 2.0 6.0 0.00 0.69 0.65 43 1007.0
20260506161017 70 113 2.0 6.0 0.00 0.69 0.65 42 1007.0
20260506160017 70 248 2.0 10.0 0.00 0.69 0.65 43 1007.0
20260506155017 71 158 2.0 9.0 0.00 0.69 0.65 42 1007.0
20260506154017 71 113 2.0 9.0 0.00 0.69 0.65 43 1007.0
20260506153017 71 113 3.0 9.0 0.00 0.69 0.65 43 1006.9
20260506152037 72 113 3.0 9.0 0.00 0.69 0.65 43 1006.9
20260506151017 72 203 2.0 9.0 0.00 0.69 0.65 43 1006.8
20260506150016 71 203 2.0 6.0 0.00 0.69 0.65 41 1007.0
20260506145037 71 113 4.0 11.0 0.00 0.69 0.65 40 1007.0
20260506144016 71 225 4.0 11.0 0.00 0.69 0.65 41 1007.1
20260506143037 71 225 4.0 14.0 0.00 0.69 0.65 40 1007.1
20260506142037 71 203 3.0 13.0 0.00 0.69 0.65 41 1007.1
20260506141016 71 90 3.0 17.0 0.00 0.69 0.65 42 1007.1
20260506140016 71 248 3.0 9.0 0.00 0.69 0.65 43 1007.1
20260506135018 71 113 3.0 13.0 0.00 0.69 0.65 44 1007.3
20260506134017 71 248 3.0 11.0 0.00 0.69 0.65 47 1007.3
20260506133016 71 203 4.0 10.0 0.00 0.69 0.65 44 1007.4
20260506132016 71 23 3.0 12.0 0.00 0.69 0.65 48 1007.5
20260506131017 70 248 2.0 5.0 0.00 0.69 0.65 49 1007.5
20260506130017 70 113 2.0 9.0 0.00 0.69 0.65 48 1007.7
20260506125016 70 113 4.0 11.0 0.00 0.69 0.65 49 1007.6
20260506124017 70 225 4.0 9.0 0.00 0.69 0.65 48 1007.6
20260506123016 70 248 2.0 7.0 0.00 0.70 0.65 50 1007.6
20260506122016 69 113 2.0 8.0 0.00 0.70 0.65 54 1007.7
20260506121057 68 203 2.0 7.0 0.00 0.71 0.65 57 1007.8
20260506120016 68 203 3.0 10.0 0.00 0.71 0.65 54 1007.9
20260506115016 68 225 2.0 8.0 0.00 0.71 0.65 58 1008.0
20260506114036 68 225 4.0 10.0 0.00 0.71 0.65 60 1008.2
20260506113016 67 23 2.0 6.0 0.00 0.71 0.65 62 1008.2
20260506112016 66 180 2.0 11.0 0.00 0.71 0.65 65 1008.4
20260506111016 66 248 2.0 5.0 0.00 0.71 0.65 67 1008.4
20260506110016 64 248 2.0 7.0 0.00 0.71 0.65 68 1008.5
20260506105016 64 180 1.0 6.0 0.00 0.71 0.65 71 1008.6
20260506104017 64 248 2.0 9.0 0.00 0.71 0.65 69 1008.7
20260506103016 64 225 3.0 8.0 0.00 0.71 0.65 71 1008.6
20260506102036 64 113 2.0 5.0 0.00 0.71 0.65 70 1008.6
20260506101016 65 248 2.0 9.0 0.00 0.71 0.65 72 1008.7
20260506100017 64 225 2.0 7.0 0.00 0.72 0.65 73 1008.6
20260506095016 63 248 2.0 6.0 0.00 0.72 0.65 74 1008.8
20260506094016 62 225 1.0 7.0 0.00 0.72 0.65 77 1008.8
20260506093036 62 248 2.0 7.0 0.00 0.72 0.65 76 1008.8
20260506092016 62 248 2.0 6.0 0.00 0.72 0.65 76 1008.8
20260506091016 62 203 2.0 5.0 0.00 0.72 0.65 79 1008.8
20260506090016 61 225 2.0 7.0 0.00 0.72 0.65 80 1008.6
20260506085016 61 90 3.0 8.0 0.00 0.73 0.65 82 1008.6
20260506084017 60 203 3.0 8.0 0.00 0.76 0.65 84 1008.5
20260506083016 61 225 4.0 11.0 0.00 0.76 0.65 87 1008.6
20260506082015 60 113 1.0 9.0 0.00 0.77 0.65 91 1008.4
20260506081015 59 203 2.0 7.0 0.00 0.77 0.65 92 1008.4
20260506073015 57 113 1.0 6.0 0.01 0.81 0.65 94 1008.4
20260506072017 55 0.0 0.0 0.02 0.81 0.65 94 1008.5
20260506071015 55 0.0 1.0 0.03 0.81 0.65 94 1008.5
20260506062017 54 0.0 0.0 0.02 0.80 0.62 93 1008.3
20260506061057 54 0.0 1.0 0.02 0.79 0.61 93 1008.3
20260506051017 52 0.0 0.0 0.00 0.77 0.60 93 1007.6
20260506045019 52 0.0 0.0 0.00 0.92 0.60 93 1007.5
20260506044017 52 0.0 0.0 0.00 0.92 0.60 93 1007.5
20260506043017 52 0.0 0.0 0.00 0.93 0.60 93 1007.5
20260506042017 52 0.0 0.0 0.00 0.93 0.60 93 1007.5
20260506041017 52 0.0 1.0 0.00 0.93 0.60 93 1007.6
20260506040018 52 0.0 0.0 0.01 0.93 0.60 93 1007.6
20260506035017 52 0.0 0.0 0.02 0.93 0.60 92 1007.5
20260506034017 52 0.0 0.0 0.04 0.93 0.60 92 1007.6
20260506033017 52 0.0 2.0 0.06 0.93 0.60 93 1007.7
20260506032017 52 0.0 1.0 0.06 0.93 0.60 92 1007.7
20260506031017 52 0.0 2.0 0.09 0.93 0.60 92 1007.9
20260506030017 52 0.0 0.0 0.14 0.92 0.59 92 1008.0
20260506025037 52 0.0 0.0 0.17 0.91 0.57 92 1008.3
20260506024017 52 0.0 0.0 0.17 0.89 0.56 92 1008.3
20260506023017 52 0.0 1.0 0.15 0.87 0.54 92 1008.4
20260506022017 52 0.0 0.0 0.14 0.87 0.54 92 1008.4
20260506021039 52 0.0 1.0 0.12 0.84 0.50 92 1008.4
20260506020017 52 248 1.0 3.0 0.06 0.79 0.45 92 1008.2
20260506015018 52 0.0 1.0 0.04 0.75 0.41 92 1008.0
20260506014016 52 0.0 0.0 0.03 0.74 0.39 91 1008.0
20260506013038 52 0.0 2.0 0.03 0.76 0.39 91 1007.6
20260506012017 53 0.0 0.0 0.03 0.85 0.39 91 1007.5
20260506011016 53 0.0 0.0 0.02 0.92 0.39 91 1007.8
20260506010017 52 0.0 1.0 0.02 0.98 0.39 91 1008.2
20260506005016 52 0.0 0.0 0.01 1.02 0.37 91 1008.5
20260506004037 52 315 1.0 3.0 0.00 1.05 0.36 91 1008.4
20260506003058 53 0.0 2.0 0.00 1.07 0.36 91 1008.3
20260506002057 52 0.0 0.0 0.00 1.09 0.36 91 1008.3
20260506001016 52 0.0 1.0 0.00 1.11 0.36 91 1008.7
20260506000017 52 0.0 1.0 0.03 1.12 0.36 91 1008.8
20260505235036 53 0.0 2.0 0.09 1.13 0.36 91 1008.9
20260505234017 53 293 1.0 3.0 0.16 1.14 0.36 91 1009.0
20260505233016 54 0.0 2.0 0.21 1.16 0.36 92 1009.3
20260505232017 54 0.0 2.0 0.25 1.17 0.36 91 1009.5